sat.trackr.live / text

‹ back to catalog

STARLINK-5548

NORAD 56334 · 2023-058T

PAYLOAD ACTIVE UNKNOWN

§ Identity

Operator
Country
US
Launch date
2023-04-27
Launch site
AFWTR
Launch vehicle
Mass (kg)
RCS (m²)

Purposes: comms

External: N2YO · Heavens-Above · Gunter

§ Orbital elements

Epoch: 2026-09-20T12:27:20.783520Z

Period
93.91 min
Inclination
97.2849°
Eccentricity
0.0001608
Mean motion
15.33440195 rev/d
Perigee alt
464.5 km
Apogee alt
466.7 km
Semi-major
6,843.7 km
B*
4.3997e-4
RAAN
260.2094°
Arg perigee
98.4431°
Mean anomaly
261.6994°
Rev number
18,763

§ Raw data

STARLINK-55481 56334U 23058T   26263.51899055  .00014154  00000+0  43997-3 0  99992 56334  97.2849 260.2094 0001608  98.4431 261.6994 15.33440195187636

JSON: /api/v1/satellites/56334 · /tle

For live sub-satellite position, see the globe view (requires WebGL).

§ Visibility from observer

Set your observer location to see the next 7 days of passes ≥ 10°. The values pass through the URL so the page stays shareable.

No JS? Fill the form by hand. The geolocation button needs JavaScript.